Location: Gaspur (historical)
(33.7814°N, 118.2212°W)
Time: 17:49:03
(UTC+00:00)

Cosmos 2082 Rocket - Pass Details

Date: 29 October 2020
Orbit: 833 x 854 km, 71.0° (Epoch: 28 November)

Event Time Altitude Azimuth Distance (km) Brightness Sun altitude
Exits shadow 12:09:40 71° 258° (WSW) 880 2.0 -25.5°
Maximum altitude 12:10:03 74° 292° (WNW) 868 2.0 -25.4°
Drops below altitude 10° 12:15:39 10° 17° (NNE) 2,447 4.8 -24.3°
Sets 12:18:06 0° 19° (NNE) 3,386 5.6 -23.8°
